N747LE LFPB-LEPA

Flight info

Callsign N747LE
Flight time 1h 29m
Altitude 41000
Route ERIXU DCT ETAMO DCT VALKU DCT ATSUP DCT MINSO DCT DEGOL DCT PPG DCT ALBER P84 LORES
Aircraft C700/M-SBDGHM1RWXY/LB2

Departure

Time 2026-04-21 13:14
Airport Paris-Le Bourget International Airport (LFPB)

Arrival

Time 2026-04-21 14:44
Airport Palma de Mallorca Airport (LEPA)
Time Latitude Longitude Altitude Speed Heading
2026-04-21 13:02 48.95655 2.44123 149 ft 0 kts 26°
2026-04-21 13:06 48.95641 2.44114 149 ft 4 kts
2026-04-21 13:07 48.95621 2.44126 149 ft 4 kts 302°
2026-04-21 13:07 48.95615 2.44141 149 ft 1 kts 295°
2026-04-21 13:07 48.95615 2.44142 149 ft 0 kts 295°
2026-04-21 13:09 48.95625 2.44112 149 ft 8 kts 296°
2026-04-21 13:09 48.95659 2.44047 150 ft 8 kts 326°
2026-04-21 13:10 48.95700 2.43984 148 ft 12 kts 295°
2026-04-21 13:10 48.95746 2.43834 150 ft 18 kts 295°
2026-04-21 13:10 48.95798 2.43663 151 ft 18 kts 295°
2026-04-21 13:10 48.95849 2.43495 157 ft 18 kts 295°
2026-04-21 13:11 48.95901 2.43322 155 ft 13 kts 295°
2026-04-21 13:11 48.95951 2.43158 151 ft 21 kts 295°
2026-04-21 13:11 48.96042 2.42970 147 ft 24 kts 309°
2026-04-21 13:11 48.96145 2.42773 150 ft 23 kts 308°
2026-04-21 13:12 48.96226 2.42619 155 ft 16 kts 309°
2026-04-21 13:12 48.96270 2.42461 155 ft 19 kts 273°
2026-04-21 13:12 48.96267 2.42325 154 ft 7 kts 267°
2026-04-21 13:12 48.96264 2.42240 154 ft 9 kts 267°
2026-04-21 13:13 48.96269 2.42110 154 ft 17 kts 300°
2026-04-21 13:13 48.96347 2.42065 151 ft 9 kts 26°
2026-04-21 13:13 48.96376 2.42153 151 ft 14 kts 83°
2026-04-21 13:13 48.96407 2.42739 161 ft 95 kts 85°
2026-04-21 13:14 48.96463 2.44065 308 ft 148 kts 81°
2026-04-21 13:14 48.96574 2.45809 806 ft 186 kts 81°
2026-04-21 13:14 48.96668 2.47831 1828 ft 201 kts 83°
2026-04-21 13:14 48.96792 2.49995 2946 ft 201 kts 82°
2026-04-21 13:15 48.96909 2.52019 4280 ft 194 kts 84°
2026-04-21 13:15 48.96907 2.54051 5537 ft 191 kts 90°
2026-04-21 13:15 48.96721 2.56083 6615 ft 198 kts 97°
2026-04-21 13:15 48.96504 2.58068 7600 ft 200 kts 95°
2026-04-21 13:16 48.96351 2.60161 8510 ft 210 kts 90°
2026-04-21 13:16 48.96213 2.62411 9503 ft 220 kts 92°
2026-04-21 13:16 48.96052 2.64784 10472 ft 228 kts 93°
2026-04-21 13:16 48.95881 2.67220 11465 ft 236 kts 93°
2026-04-21 13:17 48.95718 2.69607 12355 ft 242 kts 91°
2026-04-21 13:17 48.95539 2.72225 13348 ft 249 kts 91°
2026-04-21 13:17 48.95355 2.74871 14281 ft 254 kts 93°
2026-04-21 13:17 48.95169 2.77536 15114 ft 259 kts 92°
2026-04-21 13:18 48.94698 2.80228 15861 ft 273 kts 119°
2026-04-21 13:18 48.93309 2.82169 16663 ft 278 kts 157°
2026-04-21 13:18 48.91435 2.82608 17413 ft 272 kts 195°
2026-04-21 13:18 48.89799 2.81406 18164 ft 257 kts 233°
2026-04-21 13:19 48.88951 2.79161 18900 ft 242 kts 259°
2026-04-21 13:19 48.88396 2.76742 19576 ft 243 kts 258°
2026-04-21 13:19 48.87735 2.74360 20265 ft 246 kts 255°
2026-04-21 13:19 48.86981 2.72012 20920 ft 247 kts 254°
2026-04-21 13:20 48.86231 2.69664 21564 ft 247 kts 256°
2026-04-21 13:20 48.85500 2.67305 22236 ft 246 kts 257°
2026-04-21 13:20 48.84773 2.64954 22901 ft 246 kts 257°
2026-04-21 13:20 48.84023 2.62610 23568 ft 250 kts 255°
2026-04-21 13:21 48.83045 2.60362 24103 ft 259 kts 246°
2026-04-21 13:21 48.81989 2.58133 24611 ft 261 kts 247°
2026-04-21 13:21 48.80943 2.55879 25120 ft 263 kts 247°
2026-04-21 13:21 48.79885 2.53606 25630 ft 265 kts 247°
2026-04-21 13:22 48.78812 2.51317 26131 ft 267 kts 246°
2026-04-21 13:22 48.77728 2.49010 26622 ft 270 kts 246°
2026-04-21 13:22 48.76635 2.46679 27104 ft 272 kts 246°
2026-04-21 13:22 48.75535 2.44337 27580 ft 274 kts 246°
2026-04-21 13:23 48.74424 2.41972 28049 ft 277 kts 246°
2026-04-21 13:23 48.73149 2.39715 28510 ft 289 kts 236°
2026-04-21 13:23 48.71579 2.37725 28960 ft 301 kts 227°
2026-04-21 13:23 48.69786 2.36060 29403 ft 309 kts 222°
2026-04-21 13:24 48.67933 2.34404 29834 ft 311 kts 223°
2026-04-21 13:24 48.66074 2.32716 30265 ft 313 kts 223°
2026-04-21 13:24 48.64199 2.31023 30637 ft 315 kts 222°
2026-04-21 13:24 48.62310 2.29326 30980 ft 317 kts 221°
2026-04-21 13:25 48.60413 2.27627 31354 ft 318 kts 221°
2026-04-21 13:25 48.58508 2.25914 31686 ft 320 kts 221°
2026-04-21 13:25 48.56586 2.24189 32011 ft 322 kts 221°
2026-04-21 13:25 48.54655 2.22457 32324 ft 324 kts 221°
2026-04-21 13:26 48.52622 2.20893 32617 ft 335 kts 211°
2026-04-21 13:26 48.50332 2.19840 32714 ft 358 kts 200°
2026-04-21 13:26 48.47768 2.19427 32750 ft 384 kts 188°
2026-04-21 13:26 48.45029 2.19617 32802 ft 403 kts 183°
2026-04-21 13:27 48.42175 2.19879 32843 ft 418 kts 183°
2026-04-21 13:27 48.39218 2.20118 32847 ft 432 kts 183°
2026-04-21 13:27 48.36163 2.20351 32867 ft 447 kts 183°
2026-04-21 13:27 48.33010 2.20610 32890 ft 461 kts 182°
2026-04-21 13:28 48.29779 2.20892 33177 ft 467 kts 181°
2026-04-21 13:28 48.26548 2.21554 33824 ft 469 kts 175°
2026-04-21 13:28 48.23332 2.22361 34381 ft 467 kts 176°
2026-04-21 13:28 48.20123 2.23128 34860 ft 465 kts 176°
2026-04-21 13:29 48.16934 2.23885 35415 ft 462 kts 176°
2026-04-21 13:29 48.13761 2.24656 35889 ft 461 kts 175°
2026-04-21 13:29 48.10598 2.25430 36331 ft 460 kts 175°
2026-04-21 13:29 48.07431 2.26046 36751 ft 456 kts 182°
2026-04-21 13:30 48.04271 2.26220 37170 ft 454 kts 182°
2026-04-21 13:30 48.01115 2.26417 37575 ft 453 kts 182°
2026-04-21 13:30 47.98008 2.26637 37949 ft 452 kts 182°
2026-04-21 13:30 47.94869 2.26844 38362 ft 451 kts 182°
2026-04-21 13:31 47.91732 2.27032 38719 ft 450 kts 182°
2026-04-21 13:31 47.88601 2.27225 38994 ft 450 kts 182°
2026-04-21 13:31 47.85473 2.27430 39236 ft 450 kts 182°
2026-04-21 13:31 47.82347 2.27632 39474 ft 450 kts 182°
2026-04-21 13:32 47.79218 2.27828 39688 ft 450 kts 181°
2026-04-21 13:32 47.76085 2.28024 39893 ft 450 kts 181°
2026-04-21 13:32 47.72957 2.28223 40121 ft 450 kts 181°
2026-04-21 13:32 47.69837 2.28421 40345 ft 450 kts 181°
2026-04-21 13:33 47.66705 2.28618 40558 ft 450 kts 181°
2026-04-21 13:33 47.63575 2.28815 40769 ft 450 kts 181°
2026-04-21 13:33 47.60445 2.29012 40975 ft 450 kts 181°
2026-04-21 13:33 47.57313 2.29209 41081 ft 453 kts 181°
2026-04-21 13:34 47.50949 2.29606 41091 ft 463 kts 181°
2026-04-21 13:34 47.44444 2.30015 41089 ft 472 kts 181°
2026-04-21 13:35 47.37811 2.30428 41087 ft 482 kts 181°
2026-04-21 13:35 47.31053 2.30849 41076 ft 490 kts 181°
2026-04-21 13:36 47.24173 2.31277 41076 ft 498 kts 181°
2026-04-21 13:36 47.17265 2.31707 41073 ft 495 kts 181°
2026-04-21 13:37 47.10416 2.32130 41048 ft 490 kts 181°
2026-04-21 13:37 47.03599 2.32549 41048 ft 491 kts 181°
2026-04-21 13:38 46.96748 2.32970 41052 ft 495 kts 181°
2026-04-21 13:38 46.89858 2.33394 41041 ft 494 kts 181°
2026-04-21 13:39 46.83103 2.34576 41046 ft 496 kts 169°
2026-04-21 13:39 46.76586 2.38065 41049 ft 501 kts 161°
2026-04-21 13:40 46.70077 2.41820 41051 ft 504 kts 161°
2026-04-21 13:40 46.63538 2.45591 41053 ft 506 kts 161°
2026-04-21 13:41 46.58103 2.48717 41043 ft 504 kts 161°
2026-04-21 13:41 46.51592 2.52448 41036 ft 502 kts 161°
2026-04-21 13:42 46.45112 2.56157 41027 ft 500 kts 162°
2026-04-21 13:42 46.38621 2.59859 41026 ft 502 kts 162°
2026-04-21 13:43 46.32173 2.63530 41029 ft 504 kts 162°
2026-04-21 13:43 46.25635 2.67241 41025 ft 505 kts 162°
2026-04-21 13:44 46.19090 2.70947 41025 ft 504 kts 162°
2026-04-21 13:44 46.12572 2.74629 41010 ft 502 kts 162°
2026-04-21 13:45 46.06096 2.78277 41023 ft 499 kts 162°
2026-04-21 13:45 45.99596 2.81921 41018 ft 503 kts 163°
2026-04-21 13:46 45.93011 2.85391 41018 ft 505 kts 163°
2026-04-21 13:46 45.86436 2.88888 41014 ft 501 kts 163°
2026-04-21 13:47 45.79901 2.92306 41008 ft 499 kts 163°
2026-04-21 13:47 45.73238 2.94896 40993 ft 494 kts 177°
2026-04-21 13:48 45.66416 2.95056 41016 ft 490 kts 185°
2026-04-21 13:48 45.59622 2.94882 41011 ft 491 kts 185°
2026-04-21 13:49 45.52797 2.94699 40995 ft 489 kts 185°
2026-04-21 13:49 45.46020 2.94520 40990 ft 486 kts 185°
2026-04-21 13:50 45.39258 2.94342 40987 ft 486 kts 185°
2026-04-21 13:50 45.32485 2.94164 40986 ft 487 kts 185°
2026-04-21 13:51 45.25699 2.93985 40980 ft 489 kts 185°
2026-04-21 13:51 45.18891 2.93807 40975 ft 488 kts 185°
2026-04-21 13:52 45.12107 2.93630 40972 ft 486 kts 185°
2026-04-21 13:52 45.05359 2.93455 40962 ft 483 kts 185°
2026-04-21 13:53 44.98647 2.93279 40958 ft 483 kts 185°
2026-04-21 13:53 44.91948 2.93106 40958 ft 486 kts 185°
2026-04-21 13:54 44.85174 2.92931 40962 ft 486 kts 185°
2026-04-21 13:54 44.78444 2.92444 40949 ft 483 kts 187°
2026-04-21 13:55 44.71744 2.91968 40944 ft 481 kts 187°
2026-04-21 13:55 44.65057 2.91472 40938 ft 481 kts 187°
2026-04-21 13:56 44.58350 2.90985 40936 ft 484 kts 187°
2026-04-21 13:56 44.51621 2.90496 40940 ft 484 kts 187°
2026-04-21 13:57 44.44902 2.90009 40941 ft 483 kts 187°
2026-04-21 13:57 44.38202 2.89525 40925 ft 481 kts 187°
2026-04-21 13:58 44.31526 2.89042 40930 ft 479 kts 187°
2026-04-21 13:58 44.24919 2.88566 40927 ft 479 kts 187°
2026-04-21 13:59 44.18247 2.88085 40915 ft 481 kts 187°
2026-04-21 13:59 44.11553 2.87606 40931 ft 481 kts 187°
2026-04-21 14:00 44.04872 2.87131 40931 ft 480 kts 187°
2026-04-21 14:00 43.98191 2.86647 40920 ft 481 kts 187°
2026-04-21 14:01 43.91565 2.86181 40927 ft 480 kts 187°
2026-04-21 14:01 43.84899 2.85705 40924 ft 478 kts 187°
2026-04-21 14:02 43.78261 2.85241 40913 ft 477 kts 186°
2026-04-21 14:03 43.68263 2.85370 40917 ft 480 kts 184°
2026-04-21 14:03 43.61554 2.85457 40923 ft 484 kts 184°
2026-04-21 14:04 43.54845 2.85566 40918 ft 478 kts 184°
2026-04-21 14:04 43.48221 2.85655 40912 ft 476 kts 184°
2026-04-21 14:05 43.41559 2.85755 40919 ft 481 kts 184°
2026-04-21 14:05 43.34859 2.85854 40916 ft 479 kts 184°
2026-04-21 14:06 43.28278 2.85949 40911 ft 474 kts 184°
2026-04-21 14:06 43.21622 2.86043 40909 ft 477 kts 184°
2026-04-21 14:07 43.14999 2.86140 40918 ft 480 kts 184°
2026-04-21 14:07 43.08345 2.86238 40917 ft 477 kts 184°
2026-04-21 14:08 43.01719 2.86331 40910 ft 475 kts 184°
2026-04-21 14:08 42.95131 2.86428 40914 ft 472 kts 184°
2026-04-21 14:09 42.88564 2.86519 40907 ft 472 kts 184°
2026-04-21 14:09 42.81958 2.86614 40913 ft 477 kts 184°
2026-04-21 14:10 42.75319 2.86694 40914 ft 475 kts 185°
2026-04-21 14:10 42.68786 2.85961 40916 ft 470 kts 189°
2026-04-21 14:11 42.62278 2.85224 40908 ft 468 kts 189°
2026-04-21 14:11 42.55805 2.84450 40903 ft 471 kts 189°
2026-04-21 14:12 42.49257 2.83693 40908 ft 473 kts 189°
2026-04-21 14:12 42.42704 2.82925 40908 ft 472 kts 189°
2026-04-21 14:13 42.36179 2.82166 40892 ft 469 kts 189°
2026-04-21 14:13 42.29645 2.81404 40899 ft 473 kts 189°
2026-04-21 14:14 42.23053 2.80640 40902 ft 475 kts 189°
2026-04-21 14:14 42.16485 2.79881 40903 ft 472 kts 189°
2026-04-21 14:15 42.09961 2.79125 40898 ft 470 kts 189°
2026-04-21 14:15 42.03438 2.78372 40904 ft 472 kts 189°
2026-04-21 14:16 41.96874 2.77617 40911 ft 474 kts 189°
2026-04-21 14:16 41.90318 2.76961 40908 ft 475 kts 187°
2026-04-21 14:17 41.83731 2.76404 40905 ft 473 kts 187°
2026-04-21 14:17 41.77172 2.75861 40903 ft 472 kts 187°
2026-04-21 14:18 41.70625 2.75320 40902 ft 470 kts 187°
2026-04-21 14:18 41.64061 2.74964 40909 ft 473 kts 185°
2026-04-21 14:18 41.60763 2.74826 40515 ft 476 kts 186°
2026-04-21 14:19 41.57465 2.74678 39897 ft 470 kts 186°
2026-04-21 14:19 41.54220 2.74543 39294 ft 463 kts 186°
2026-04-21 14:19 41.51026 2.74416 38691 ft 456 kts 186°
2026-04-21 14:19 41.47876 2.74285 38040 ft 448 kts 186°
2026-04-21 14:20 41.44790 2.74154 37458 ft 440 kts 186°
2026-04-21 14:20 41.41748 2.74026 36884 ft 437 kts 186°
2026-04-21 14:20 41.38701 2.73897 36309 ft 441 kts 186°
2026-04-21 14:20 41.35596 2.73765 35723 ft 451 kts 186°
2026-04-21 14:21 41.32426 2.73634 35122 ft 458 kts 186°
2026-04-21 14:21 41.29241 2.73507 34517 ft 458 kts 186°
2026-04-21 14:21 41.26057 2.73378 33907 ft 457 kts 186°
2026-04-21 14:21 41.22924 2.73246 33281 ft 455 kts 186°
2026-04-21 14:22 41.19723 2.73113 32681 ft 455 kts 186°
2026-04-21 14:22 41.16581 2.72982 32083 ft 459 kts 186°
2026-04-21 14:22 41.13378 2.72850 31477 ft 463 kts 186°
2026-04-21 14:22 41.10141 2.72717 30861 ft 466 kts 186°
2026-04-21 14:23 41.06899 2.72586 30246 ft 466 kts 185°
2026-04-21 14:23 41.03664 2.72453 29601 ft 464 kts 185°
2026-04-21 14:23 41.00452 2.72322 28987 ft 459 kts 185°
2026-04-21 14:23 40.97274 2.72192 28379 ft 454 kts 185°
2026-04-21 14:24 40.94131 2.72063 27787 ft 449 kts 185°
2026-04-21 14:24 40.91020 2.71935 27198 ft 446 kts 185°
2026-04-21 14:24 40.87929 2.71808 26613 ft 442 kts 185°
2026-04-21 14:24 40.84864 2.71682 26032 ft 439 kts 185°
2026-04-21 14:25 40.81821 2.71557 25458 ft 437 kts 185°
2026-04-21 14:25 40.78791 2.71433 24886 ft 435 kts 185°
2026-04-21 14:25 40.75772 2.71309 24313 ft 433 kts 185°
2026-04-21 14:25 40.72809 2.71188 23753 ft 430 kts 185°
2026-04-21 14:26 40.69832 2.71067 23145 ft 426 kts 185°
2026-04-21 14:26 40.66891 2.70948 22584 ft 420 kts 185°
2026-04-21 14:26 40.63991 2.70829 22033 ft 414 kts 185°
2026-04-21 14:26 40.61118 2.70711 21483 ft 411 kts 185°
2026-04-21 14:27 40.58263 2.70594 20949 ft 409 kts 184°
2026-04-21 14:27 40.55430 2.70479 20411 ft 407 kts 184°
2026-04-21 14:27 40.52608 2.70492 19869 ft 407 kts 178°
2026-04-21 14:27 40.49823 2.71127 19338 ft 406 kts 168°
2026-04-21 14:28 40.48009 2.71905 18973 ft 405 kts 161°
2026-04-21 14:28 40.45485 2.73524 18445 ft 403 kts 153°
2026-04-21 14:28 40.43052 2.75308 17877 ft 399 kts 153°
2026-04-21 14:28 40.40672 2.77031 17360 ft 394 kts 153°
2026-04-21 14:29 40.38282 2.78753 16846 ft 389 kts 153°
2026-04-21 14:29 40.35956 2.80437 16338 ft 375 kts 153°
2026-04-21 14:29 40.33715 2.82061 15853 ft 362 kts 153°
2026-04-21 14:29 40.31545 2.83629 15383 ft 351 kts 153°
2026-04-21 14:30 40.29439 2.85147 14926 ft 341 kts 153°
2026-04-21 14:30 40.27388 2.86626 14486 ft 333 kts 152°
2026-04-21 14:30 40.25378 2.88075 14051 ft 326 kts 152°
2026-04-21 14:30 40.23415 2.89489 13613 ft 320 kts 152°
2026-04-21 14:31 40.21482 2.90881 13173 ft 313 kts 152°
2026-04-21 14:31 40.19593 2.92239 12760 ft 307 kts 152°
2026-04-21 14:31 40.17726 2.93580 12362 ft 305 kts 152°
2026-04-21 14:31 40.15869 2.94915 11960 ft 305 kts 152°
2026-04-21 14:32 40.14008 2.96251 11548 ft 305 kts 152°
2026-04-21 14:32 40.12152 2.97583 11153 ft 304 kts 152°
2026-04-21 14:32 40.10306 2.98906 10751 ft 302 kts 152°
2026-04-21 14:32 40.08470 3.00222 10358 ft 299 kts 152°
2026-04-21 14:33 40.06656 3.01521 9962 ft 297 kts 152°
2026-04-21 14:33 40.04852 3.02812 9550 ft 294 kts 152°
2026-04-21 14:33 40.03065 3.04091 9156 ft 291 kts 152°
2026-04-21 14:33 40.01296 3.05355 8771 ft 288 kts 152°
2026-04-21 14:34 39.99549 3.06603 8396 ft 286 kts 152°
2026-04-21 14:34 39.97824 3.07834 8024 ft 285 kts 152°
2026-04-21 14:34 39.96083 3.09076 7643 ft 285 kts 152°
2026-04-21 14:34 39.94353 3.10311 7272 ft 283 kts 152°
2026-04-21 14:35 39.92636 3.11532 6949 ft 278 kts 153°
2026-04-21 14:35 39.90829 3.12102 6918 ft 268 kts 184°
2026-04-21 14:35 39.89077 3.11291 6938 ft 274 kts 211°
2026-04-21 14:35 39.87472 3.09935 6864 ft 271 kts 213°
2026-04-21 14:36 39.85826 3.08699 6259 ft 276 kts 206°
2026-04-21 14:36 39.84066 3.07654 5681 ft 279 kts 203°
2026-04-21 14:36 39.82312 3.06643 5322 ft 274 kts 204°
2026-04-21 14:36 39.80610 3.05583 4954 ft 269 kts 206°
2026-04-21 14:37 39.78930 3.04522 4570 ft 266 kts 205°
2026-04-21 14:37 39.77275 3.03500 4193 ft 262 kts 204°
2026-04-21 14:37 39.75632 3.02491 3770 ft 261 kts 204°
2026-04-21 14:37 39.74038 3.01504 3347 ft 246 kts 205°
2026-04-21 14:38 39.72530 3.00574 2880 ft 234 kts 205°
2026-04-21 14:38 39.71070 2.99673 2527 ft 231 kts 205°
2026-04-21 14:38 39.69678 2.98814 2512 ft 212 kts 204°
2026-04-21 14:38 39.68379 2.98015 2513 ft 204 kts 205°
2026-04-21 14:39 39.67083 2.97217 2524 ft 208 kts 204°
2026-04-21 14:39 39.65777 2.96382 2512 ft 210 kts 211°
2026-04-21 14:39 39.64655 2.95163 2525 ft 211 kts 225°
2026-04-21 14:39 39.63785 2.93652 2565 ft 203 kts 236°
2026-04-21 14:40 39.63046 2.92112 2531 ft 199 kts 238°
2026-04-21 14:40 39.62342 2.90579 2505 ft 198 kts 237°
2026-04-21 14:40 39.61614 2.89069 2261 ft 191 kts 237°
2026-04-21 14:40 39.60995 2.87733 2047 ft 163 kts 238°
2026-04-21 14:41 39.60437 2.86555 1830 ft 144 kts 236°
2026-04-21 14:41 39.59926 2.85468 1645 ft 139 kts 236°
2026-04-21 14:41 39.59422 2.84397 1445 ft 141 kts 236°
2026-04-21 14:41 39.58918 2.83328 1299 ft 140 kts 236°
2026-04-21 14:42 39.58400 2.82241 1120 ft 138 kts 236°
2026-04-21 14:42 39.57915 2.81199 939 ft 131 kts 236°
2026-04-21 14:42 39.57431 2.80209 727 ft 128 kts 236°
2026-04-21 14:42 39.56959 2.79223 608 ft 132 kts 238°
2026-04-21 14:43 39.56486 2.78200 460 ft 132 kts 239°
2026-04-21 14:43 39.56015 2.77179 264 ft 130 kts 239°
2026-04-21 14:43 39.55553 2.76190 71 ft 127 kts 239°
2026-04-21 14:43 39.55139 2.75307 26 ft 99 kts 239°
2026-04-21 14:44 39.54863 2.74719 24 ft 59 kts 239°
2026-04-21 14:44 39.54805 2.74397 24 ft 34 kts 270°
2026-04-21 14:44 39.54803 2.74253 24 ft 4 kts 268°
2026-04-21 14:44 39.54803 2.74240 24 ft 0 kts 268°
2026-04-21 14:45 39.54803 2.74234 24 ft 4 kts 268°
2026-04-21 14:45 39.54798 2.74171 24 ft 8 kts 258°
2026-04-21 14:45 39.54774 2.74092 25 ft 10 kts 238°
2026-04-21 14:45 39.54733 2.74004 24 ft 12 kts 238°
2026-04-21 14:46 39.54678 2.73888 24 ft 17 kts 238°
2026-04-21 14:46 39.54614 2.73753 24 ft 18 kts 238°
2026-04-21 14:46 39.54545 2.73606 24 ft 20 kts 238°
2026-04-21 14:46 39.54470 2.73448 24 ft 21 kts 238°
2026-04-21 14:47 39.54391 2.73282 24 ft 22 kts 238°
2026-04-21 14:47 39.54334 2.73161 25 ft 11 kts 238°
2026-04-21 14:47 39.54289 2.73067 24 ft 13 kts 238°
2026-04-21 14:47 39.54243 2.72970 24 ft 12 kts 238°
2026-04-21 14:48 39.54210 2.72882 24 ft 8 kts 263°
2026-04-21 14:48 39.54203 2.72825 26 ft 7 kts 237°
2026-04-21 14:48 39.54185 2.72786 24 ft 0 kts 238°
2026-04-21 14:48 39.54167 2.72760 24 ft 4 kts 195°
2026-04-21 14:49 39.54152 2.72772 24 ft 0 kts 148°
2026-04-21 14:49 39.54149 2.72774 24 ft 1 kts 147°